TimeMST,TemperatureF,Dew PointF,Humidity,Sea Level PressureIn,VisibilityMPH,Wind Direction,Wind SpeedMPH,Gust SpeedMPH,PrecipitationIn,Events,Conditions,WindDirDegrees,DateUTC
12:53 AM,25.0,17.1,72,29.98,10.0,WSW,3.5,-,N/A,,Clear,240,2013-02-04 07:53:00
1:53 AM,21.9,17.1,82,30.01,10.0,SW,4.6,-,N/A,,Clear,230,2013-02-04 08:53:00
3:53 AM,24.1,10.9,57,30.04,10.0,Calm,Calm,-,N/A,,Clear,0,2013-02-04 10:53:00
4:53 AM,18.0,10.9,74,30.06,10.0,WNW,5.8,-,N/A,,Clear,300,2013-02-04 11:53:00
5:53 AM,21.0,10.9,65,30.07,10.0,WNW,5.8,-,N/A,,Clear,290,2013-02-04 12:53:00
6:53 AM,18.0,10.0,71,30.10,10.0,North,3.5,-,N/A,,Clear,360,2013-02-04 13:53:00
7:53 AM,21.9,14.0,72,30.09,10.0,Calm,Calm,-,N/A,,Clear,0,2013-02-04 14:53:00
8:53 AM,28.9,17.1,61,30.09,10.0,Calm,Calm,-,N/A,,Clear,0,2013-02-04 15:53:00
9:53 AM,36.0,18.0,48,30.06,10.0,Variable,3.5,-,N/A,,Clear,0,2013-02-04 16:53:00
10:53 AM,44.1,18.0,35,30.01,10.0,Calm,Calm,-,N/A,,Clear,0,2013-02-04 17:53:00
11:53 AM,51.1,12.0,21,29.96,10.0,SE,8.1,-,N/A,,Clear,140,2013-02-04 18:53:00
12:53 PM,53.1,9.0,17,29.90,10.0,SE,3.5,-,N/A,,Clear,130,2013-02-04 19:53:00
1:53 PM,55.0,7.0,15,29.87,10.0,SE,4.6,-,N/A,,Clear,140,2013-02-04 20:53:00
2:53 PM,55.0,7.0,15,29.86,10.0,SE,4.6,-,N/A,,Clear,130,2013-02-04 21:53:00
3:53 PM,55.9,9.0,15,29.84,10.0,SE,5.8,-,N/A,,Clear,130,2013-02-04 22:53:00
4:53 PM,55.0,10.9,17,29.85,10.0,ESE,6.9,-,N/A,,Clear,120,2013-02-04 23:53:00
5:53 PM,44.1,12.9,28,29.88,10.0,Calm,Calm,-,N/A,,Clear,0,2013-02-05 00:53:00
6:53 PM,41.0,12.9,32,29.92,10.0,NE,6.9,-,N/A,,Clear,50,2013-02-05 01:53:00
7:53 PM,37.9,12.0,35,29.94,10.0,North,15.0,-,N/A,,Clear,10,2013-02-05 02:53:00
8:53 PM,37.0,10.9,34,29.94,10.0,Calm,Calm,-,N/A,,Clear,0,2013-02-05 03:53:00
9:53 PM,37.0,10.9,34,29.92,10.0,SSW,4.6,-,N/A,,Clear,210,2013-02-05 04:53:00
10:53 PM,27.0,10.9,51,29.93,10.0,Calm,Calm,-,N/A,,Clear,0,2013-02-05 05:53:00
11:53 PM,25.0,12.0,58,29.92,10.0,Calm,Calm,-,N/A,,Clear,0,2013-02-05 06:53:00